Wind_Speed
51 53 56 59 62 65 68 71 73 76 78 80 81 83 83 84 84 84 84 84 84 83 83 83 82 81 79 78 76 75 74 73 72 71 70 70 69 68 67 67 67 67
54 55 56 58 60 63 66 69 72 74 76 78 79 80 81 81 82 82 82 82 82 81 81 80 78 77 76 75 74 73 73 72 72 71 70 69 69 69 69 69 69 70
59 59 60 61 62 64 65 67 70 72 73 75 76 78 79 79 80 80 80 80 79 78 77 76 75 74 74 73 73 73 72 72 71 71 70 70 70 71 71 71 72 73
62 63 63 64 65 66 67 68 69 71 72 73 75 76 77 77 77 77 77 76 75 75 74 74 73 73 73 73 73 72 72 72 72 72 72 72 73 73 73 74 75 76
65 65 65 65 66 66 67 68 69 70 72 73 73 74 74 74 74 74 73 73 73 72 72 72 72 73 73 72 72 72 72 73 73 74 74 74 75 75 76 77 77 78
66 66 66 66 66 67 68 68 69 70 71 72 72 72 72 72 71 71 71 71 71 71 72 72 72 73 73 73 73 73 73 74 74 75 75 76 77 77 78 79 80 79
66 66 66 67 67 67 68 69 69 70 70 70 70 70 70 70 70 70 70 71 71 72 72 73 73 73 73 73 73 74 74 75 75 76 76 77 78 79 80 81 81 80
65 66 66 67 68 68 69 69 69 69 69 69 69 69 69 69 69 70 71 72 72 73 73 73 73 73 73 73 74 74 75 76 76 77 78 79 80 81 81 81 81 80
67 68 68 68 69 69 69 68 68 68 68 68 69 69 69 70 71 72 73 73 74 74 73 73 73 73 73 74 74 75 76 76 77 79 79 80 81 80 80 80 80 80
69 69 69 69 68 68 67 66 66 66 67 68 69 70 71 72 73 73 73 73 73 73 72 72 72 73 73 74 74 75 76 77 79 79 80 80 80 80 79 79 79 79
68 68 67 66 66 65 65 65 65 67 68 70 71 72 72 73 73 73 72 72 71 71 71 71 72 72 72 74 75 76 77 78 78 79 79 80 79 79 78 78 78 78
67 66 64 64 63 64 64 65 66 68 70 71 72 72 72 72 71 70 70 70 70 70 70 70 71 71 72 74 75 76 77 78 79 79 80 79 78 78 77 77 77 77
64 63 63 63 63 64 65 66 67 69 70 71 71 71 70 69 69 68 69 69 69 69 69 69 70 71 72 74 75 76 77 79 79 79 78 78 77 77 76 76 75 74
62 62 63 63 64 65 66 67 68 69 69 69 69 68 68 67 67 67 68 68 67 67 68 68 69 70 72 73 75 77 78 79 80 79 77 76 76 77 76 75 74 73
63 63 64 64 65 65 66 67 67 67 67 67 67 66 65 65 65 65 66 66 66 66 67 68 69 70 72 74 76 78 79 79 79 77 76 75 76 76 75 74 73 74
63 64 64 65 65 65 65 65 65 65 65 65 64 63 63 63 63 63 64 64 65 66 67 68 69 71 72 75 77 78 79 79 78 76 75 75 76 75 74 74 74 74
64 64 64 64 63 62 62 62 62 62 62 62 61 60 60 61 61 62 63 64 65 67 68 69 70 72 74 76 78 79 79 78 77 76 76 76 75 75 75 75 75 75
63 62 61 60 60 59 59 59 59 59 59 59 59 58 59 60 61 62 63 65 66 68 69 71 72 73 75 77 79 79 79 78 77 76 76 76 75 75 76 76 76 77
59 58 58 57 57 57 57 57 57 58 58 58 58 59 60 61 62 63 65 66 68 69 71 72 73 75 77 78 79 80 80 78 77 76 76 75 75 76 77 77 78 78
56 56 56 55 55 55 56 56 57 58 59 59 60 60 61 62 63 65 67 68 70 71 72 74 74 76 78 80 81 82 80 78 77 76 76 75 76 76 77 77 77 77
55 55 55 55 56 56 56 57 58 59 60 61 61 62 63 64 65 67 68 70 71 73 74 75 76 78 79 81 82 82 79 77 77 76 75 75 76 76 76 76 76 76
55 55 56 56 57 57 58 58 59 60 61 62 63 63 64 65 66 68 70 71 72 74 75 76 77 79 81 83 83 81 78 77 76 75 75 75 75 75 75 75 75 75
56 57 57 58 58 58 59 59 60 61 62 63 64 64 65 66 68 69 71 72 73 74 75 76 78 80 82 84 83 80 78 76 75 74 74 74 74 74 74 74 74 73
57 57 58 58 59 59 60 61 61 62 63 64 64 65 66 68 69 71 72 72 73 74 76 77 79 81 83 84 82 79 76 75 74 74 74 74 73 74 74 74 72 71
58 59 59 60 60 61 61 62 63 63 64 65 66 67 68 69 70 71 72 73 74 75 76 78 79 82 83 82 79 76 75 74 73 73 73 73 73 74 74 72 71 69
60 60 61 62 62 63 63 64 64 64 65 66 67 68 69 70 70 71 72 73 74 75 77 78 80 82 82 79 76 74 73 72 73 73 73 73 74 75 74 72 71 69
Wind_Direction
277 276 274 273 273 272 272 273 274 275 276 278 280 282 284 286 288 290 292 294 295 297 298 300 301 302 303 304 304 305 305 306 306 306 306 306 305 305 304 303 302 302
278 277 276 275 275 274 274 275 275 277 278 280 282 284 286 288 289 291 293 295 296 298 299 301 302 303 303 304 304 305 305 305 305 305 305 305 304 303 303 302 302 301
280 279 279 279 279 279 279 279 280 281 282 283 285 286 288 289 291 292 294 296 298 299 301 302 302 303 303 304 304 304 305 305 305 305 304 304 303 303 303 302 302 302
283 283 284 284 284 284 284 284 284 285 286 286 287 289 290 292 294 295 297 299 300 301 301 302 302 302 303 303 304 304 304 304 304 304 303 303 303 303 303 303 303 303
285 285 286 286 286 287 287 287 287 288 289 290 291 293 294 296 297 298 299 300 300 301 301 301 302 302 303 303 303 303 303 303 303 303 303 303 304 304 304 303 303 303
286 287 288 288 289 290 290 291 291 292 293 294 295 296 297 297 298 299 299 300 301 301 301 301 301 302 302 303 303 303 303 303 303 303 304 304 304 304 304 304 304 304
289 290 290 291 292 292 292 293 293 294 294 295 295 295 296 297 298 298 299 300 300 300 300 301 301 302 302 302 302 302 302 303 303 303 304 304 304 304 304 304 304 304
289 290 290 291 291 291 292 292 293 293 293 294 294 294 295 296 297 298 298 299 299 300 300 301 301 302 302 302 302 302 302 303 304 304 304 305 305 305 305 305 305 305
287 288 289 289 290 290 291 291 291 292 292 292 293 294 295 296 297 298 298 299 299 300 301 301 301 301 302 302 302 303 304 304 305 305 305 305 306 306 307 307 306 306
286 287 288 288 289 289 289 290 290 291 291 292 293 294 296 297 298 298 299 299 300 300 301 301 301 302 302 303 303 304 305 306 306 306 306 307 307 307 307 307 306 305
287 287 288 288 288 288 288 289 290 291 292 293 294 296 297 297 298 299 299 300 300 300 301 301 302 302 303 304 305 306 306 307 307 308 308 308 308 307 307 306 305 305
287 288 287 287 287 288 289 290 291 292 293 294 295 296 297 298 299 299 299 300 300 301 301 302 303 304 305 306 306 307 307 308 308 309 309 308 308 307 306 306 306 305
287 287 287 287 288 289 290 291 292 293 294 295 296 297 298 299 299 299 299 300 300 301 302 304 305 306 307 307 308 308 309 309 309 309 309 308 308 307 307 306 306 305
286 286 287 288 289 291 292 293 293 294 295 296 296 297 298 299 299 299 299 300 302 303 304 305 306 307 308 308 309 309 310 310 310 310 309 309 308 308 307 307 307 306
286 287 289 290 291 292 293 293 294 295 295 296 297 298 298 298 299 300 301 302 304 305 305 306 307 308 309 309 309 310 310 311 311 311 310 310 309 308 308 308 308 307
288 289 290 291 292 293 293 294 294 295 296 296 297 298 299 299 300 302 303 304 305 306 306 307 308 309 309 309 310 311 312 312 312 312 311 310 310 310 310 309 309 309
288 289 291 292 293 293 294 294 295 295 296 297 298 299 300 301 303 304 305 305 306 306 307 308 309 310 310 310 311 312 313 314 313 312 312 311 311 311 311 311 311 311
290 291 292 293 293 294 295 295 296 296 297 298 300 301 302 303 304 305 305 305 306 307 308 309 310 310 311 311 313 314 315 315 314 313 313 313 313 313 313 313 313 312
291 292 293 293 294 295 295 296 297 298 299 300 302 303 304 304 305 305 305 305 306 308 309 310 311 311 312 313 315 316 316 315 314 314 314 314 314 314 314 314 313 313
292 292 293 294 295 296 297 298 298 299 300 301 302 303 304 304 304 305 305 306 308 309 310 310 311 312 313 315 316 316 316 315 315 314 314 315 315 314 314 313 313 313
292 293 294 294 295 297 297 298 299 300 301 301 302 303 303 304 305 305 306 307 308 309 310 311 312 313 314 315 316 316 316 315 315 315 314 314 314 314 313 313 313 314
292 293 294 295 296 297 298 298 299 300 300 301 302 303 303 304 304 305 306 307 308 309 310 311 313 313 314 315 316 316 315 315 315 314 314 314 314 314 314 314 314 315
292 293 294 295 296 297 298 298 299 300 300 301 302 302 303 303 304 304 305 307 308 309 310 311 312 313 314 315 315 315 315 314 314 314 314 314 314 314 315 315 316 316
292 293 294 295 296 297 298 299 299 300 300 301 301 301 301 302 303 304 305 307 308 309 310 311 312 313 314 314 314 314 314 314 314 314 315 315 315 316 316 317 317 318
292 293 294 295 297 298 298 298 299 299 299 300 299 300 301 302 303 304 305 307 308 309 310 311 312 313 313 313 313 313 313 314 315 315 316 316 317 317 318 318 318 319
293 294 295 296 297 297 297 298 298 298 298 298 299 299 301 302 303 304 305 306 307 308 309 310 311 312 312 312 312 313 314 315 315 316 317 318 318 319 319 319 319 320
Height
10719 10717 10716 10715 10714 10713 10710 10708 10705 10702 10700 10697 10694 10691 10689 10686 10684 10681 10679 10676 10673 10670 10667 10663 10660 10656 10653 10649 10646 10643 10640 10637 10633 10630 10626 10623 10619 10616 10613 10611 10608 10605
10713 10712 10710 10709 10708 10706 10705 10702 10699 10696 10693 10690 10687 10684 10682 10680 10677 10675 10672 10669 10666 10663 10659 10656 10652 10648 10645 10642 10639 10636 10633 10629 10626 10622 10619 10615 10612 10609 10605 10602 10600 10597
10706 10705 10704 10703 10701 10699 10697 10695 10691 10689 10686 10683 10680 10678 10675 10673 10671 10668 10665 10662 10659 10655 10652 10648 10644 10641 10638 10635 10632 10628 10625 10621 10618 10614 10611 10608 10604 10600 10597 10593 10590 10587
10698 10697 10696 10695 10693 10691 10689 10686 10684 10681 10678 10676 10673 10671 10669 10666 10663 10661 10658 10654 10651 10647 10644 10641 10637 10634 10631 10628 10624 10621 10617 10614 10610 10606 10603 10599 10596 10592 10588 10584 10580 10576
10691 10690 10689 10688 10686 10684 10682 10679 10676 10674 10671 10669 10666 10663 10661 10658 10656 10653 10650 10647 10644 10641 10637 10634 10631 10627 10624 10621 10617 10613 10609 10606 10602 10598 10595 10591 10587 10583 10579 10574 10570 10566
10684 10683 10682 10680 10678 10676 10674 10671 10668 10666 10663 10661 10658 10656 10653 10651 10649 10646 10643 10640 10637 10634 10630 10627 10624 10621 10617 10613 10609 10606 10602 10598 10594 10590 10586 10582 10578 10574 10569 10564 10560 10556
10677 10676 10674 10673 10671 10668 10666 10663 10661 10659 10656 10654 10651 10649 10647 10645 10642 10640 10637 10634 10631 10627 10624 10620 10617 10613 10610 10606 10602 10598 10594 10590 10586 10582 10578 10574 10569 10565 10560 10554 10549 10545
10671 10670 10668 10667 10664 10662 10660 10657 10655 10653 10650 10648 10645 10643 10641 10639 10637 10634 10631 10627 10624 10620 10617 10613 10610 10606 10602 10598 10594 10590 10586 10583 10578 10574 10569 10564 10560 10555 10550 10544 10538 10533
10666 10664 10663 10661 10659 10657 10655 10652 10650 10647 10644 10642 10639 10637 10636 10633 10630 10627 10624 10620 10617 10613 10609 10606 10602 10598 10595 10590 10586 10582 10578 10574 10570 10565 10560 10555 10549 10545 10540 10534 10528 10522
10661 10659 10658 10656 10653 10651 10649 10646 10644 10641 10638 10635 10633 10631 10629 10626 10623 10620 10617 10613 10609 10606 10602 10599 10595 10591 10587 10582 10578 10574 10570 10565 10561 10556 10551 10545 10540 10535 10530 10525 10519 10513
10655 10653 10652 10650 10647 10645 10643 10640 10638 10634 10631 10629 10626 10625 10622 10619 10616 10613 10609 10605 10602 10599 10595 10591 10587 10583 10579 10575 10570 10566 10561 10557 10552 10547 10542 10536 10531 10526 10521 10516 10510 10503
10649 10647 10645 10643 10641 10639 10636 10634 10631 10628 10625 10622 10620 10618 10615 10612 10609 10605 10602 10598 10595 10591 10588 10584 10580 10575 10571 10567 10563 10558 10553 10548 10543 10538 10532 10527 10521 10516 10512 10507 10501 10494
10642 10640 10638 10636 10634 10632 10630 10627 10624 10621 10618 10615 10613 10611 10608 10605 10602 10598 10595 10591 10588 10584 10580 10576 10572 10568 10564 10559 10555 10550 10545 10540 10534 10529 10524 10518 10512 10506 10502 10497 10492 10485
10635 10633 10631 10630 10628 10626 10623 10620 10617 10614 10611 10608 10606 10604 10601 10598 10595 10591 10588 10584 10581 10577 10573 10569 10565 10561 10556 10552 10547 10542 10537 10531 10525 10520 10515 10509 10503 10496 10491 10487 10482 10476
10628 10626 10625 10623 10621 10619 10616 10613 10610 10607 10604 10602 10599 10597 10595 10591 10588 10584 10581 10577 10574 10570 10566 10562 10558 10554 10549 10545 10540 10534 10529 10523 10517 10511 10505 10500 10494 10487 10482 10477 10472 10466
10621 10620 10618 10616 10614 10612 10609 10607 10604 10601 10598 10595 10593 10591 10588 10584 10581 10577 10574 10570 10566 10562 10559 10555 10551 10547 10542 10537 10532 10526 10520 10514 10508 10502 10496 10491 10484 10478 10473 10468 10462 10456
10615 10613 10612 10610 10608 10606 10603 10600 10597 10595 10592 10589 10587 10584 10581 10578 10574 10570 10567 10563 10559 10555 10551 10547 10543 10539 10534 10529 10523 10518 10512 10505 10500 10493 10487 10482 10475 10469 10464 10458 10452 10447
10608 10607 10605 10603 10601 10599 10596 10594 10591 10588 10586 10583 10581 10578 10574 10571 10567 10564 10560 10556 10552 10548 10544 10540 10536 10531 10526 10521 10515 10509 10503 10497 10491 10485 10479 10473 10467 10460 10454 10448 10442 10437
10602 10600 10598 10597 10595 10593 10590 10588 10585 10582 10579 10576 10574 10571 10568 10564 10561 10557 10553 10549 10545 10541 10537 10533 10528 10523 10518 10513 10507 10501 10495 10489 10483 10477 10471 10465 10458 10452 10445 10439 10433 10427
10595 10594 10592 10590 10588 10586 10584 10581 10578 10575 10573 10570 10567 10564 10561 10558 10554 10550 10546 10542 10538 10534 10530 10525 10521 10516 10511 10505 10499 10493 10487 10481 10475 10469 10463 10457 10451 10444 10437 10431 10425 10419
10589 10587 10586 10584 10582 10580 10578 10575 10572 10569 10566 10563 10560 10557 10554 10550 10547 10543 10539 10535 10531 10527 10522 10518 10513 10508 10503 10497 10491 10486 10480 10474 10468 10461 10455 10449 10443 10437 10430 10423 10417 10411
10583 10581 10579 10577 10576 10574 10571 10568 10565 10562 10559 10556 10553 10550 10547 10543 10539 10535 10532 10528 10524 10520 10515 10511 10506 10501 10496 10490 10484 10478 10472 10466 10460 10454 10448 10442 10436 10429 10422 10416 10410 10404
10576 10575 10573 10571 10569 10567 10565 10562 10559 10556 10552 10549 10546 10542 10539 10536 10532 10528 10525 10521 10517 10513 10508 10504 10499 10494 10488 10482 10476 10470 10465 10459 10453 10447 10441 10435 10428 10422 10416 10409 10402 10396
10570 10568 10566 10564 10562 10560 10558 10555 10552 10549 10546 10542 10539 10535 10532 10529 10526 10522 10518 10514 10510 10506 10501 10497 10492 10487 10481 10475 10469 10464 10458 10452 10446 10440 10434 10427 10421 10414 10408 10402 10395 10389
10563 10561 10559 10558 10556 10553 10551 10548 10545 10542 10539 10535 10532 10529 10525 10522 10519 10515 10511 10507 10503 10499 10495 10490 10485 10480 10475 10469 10463 10457 10451 10445 10439 10432 10426 10419 10413 10406 10400 10394 10388 10382
10556 10554 10552 10551 10549 10546 10544 10541 10538 10535 10532 10528 10525 10522 10519 10516 10513 10509 10505 10500 10496 10492 10488 10484 10479 10474 10468 10462 10456 10450 10444 10438 10431 10425 10418 10411 10405 10398 10392 10386 10380 10375